Regional Weather Roundup
Issued by NWS

Home | Current Version | Previous Version | Text Only | Print | Product List | Glossary Off
Versions: 1 2 3 4 5 6 7 8 9 10 11 12 13 14 15 16 17 18 19 20 21 22 23 24 25 26 27 28

000
ASUS45 KTFX 280210
RWRMT
MONTANA REGIONAL WEATHER ROUNDUP
NATIONAL WEATHER SERVICE GREAT FALLS MT
800 PM MDT MON MAR 27 2017

NOTE: "FAIR" INDICATES FEW OR NO CLOUDS BELOW 12000 FEET WITH NO
SIGNIFICANT WEATHER AND/OR OBSTRUCTIONS TO VISIBILITY.

MTZ001>007-043-280300-
WEST OF THE DIVIDE

CITY           SKY/WX    TMP DP  RH WIND       PRES   REMARKS
KALISPELL      MOCLDY    42  37  82 SE10      30.04R
MISSOULA       PTCLDY    41  36  82 SW3       30.09R
BUTTE          CLOUDY    39  26  59 N9        30.01R
MULLAN PASS    CLOUDY    29  28  96 VRB6      30.05R WCI  23
ANACONDA         N/A     37  27  65 N6        30.02R
DEER LODGE       N/A     37  27  65 N6        30.05R
EUREKA           N/A     46  28  49 S8        30.02R
HAMILTON         N/A     45  25  45 W3        30.08R
PLAINS           N/A     46  32  58 CALM      30.09
RONAN            N/A     43  33  67 CALM      30.11R
$$

MTZ008-052>055-280300-
SOUTHWEST MONTANA

CITY           SKY/WX    TMP DP  RH WIND       PRES   REMARKS
BOZEMAN        CLOUDY    42  35  76 W7        29.99R
DILLON         CLOUDY    40  33  76 SW8       29.98R
W YELLOWSTONE  CLOUDY    34  30  86 CALM      29.96R
ENNIS          CLOUDY    36  34  93 NE13G20   30.03R FOG     WCI  27
THREE FORKS      N/A     42   7  24 CALM      29.99R
$$

MTZ009-010-012-014-046-048-049-054-280300-
EAST SLOPES AND CENTRAL MONTANA

CITY           SKY/WX    TMP DP  RH WIND       PRES   REMARKS
CUT BANK       CLOUDY    44  30  57 W18       29.94R
GREAT FALLS    CLOUDY    46  30  53 NW6       29.95R
MALMSTROM AFB  CLOUDY    48  31  52 W6        29.95R
HELENA         CLOUDY    46  30  53 W12       29.99R
AUGUSTA        MOCLDY    44  26  49 NW15      29.96R
BOWMANS CRNR   MOCLDY    42  30  61 NW10      29.95R
CHOTEAU          N/A     45  32  61 NW3       29.98R
CONRAD           N/A     47  32  56 SW9       29.98R
FAIRFIELD      MOCLDY    44  32  60 N3        29.95R
POWER            N/A     38  30  71 NW9       29.94R WCI  32
RAYNESFORD     MOCLDY    44  35  70 SW12      29.96R
$$

MTZ011-013-016-021-045-047-050-051-280300-
NORTH CENTRAL MONTANA

CITY           SKY/WX    TMP DP  RH WIND       PRES   REMARKS
HAVRE          CLOUDY    50  36  58 E13       29.89R
LEWISTOWN      CLOUDY    46  28  49 NW7       29.92R
N BAR RANCH      N/A     45  32  61 CALM      29.94R
CHINOOK          N/A     50  36  57 E7        29.91R
DENTON         MOCLDY    47  29  50 W9        29.89R
FORT BENTON      N/A     52  28  40 MISG      29.94R
GEYSER         LGT RAIN  46  32  58 W10       29.93R
GRASS RANGE    MOCLDY    46  32  59 CALM      29.88R
JUDITH GAP     MOCLDY    43  29  59 NW14      29.92R
STANFORD       MOCLDY    45  31  58 NW12G21   29.94R
WINIFRED         N/A     47  27  46 W7        29.91R
$$

MTZ017>020-022>027-061-062-280300-
NORTHEAST MONTANA

CITY           SKY/WX    TMP DP  RH WIND       PRES   REMARKS
GLASGOW        CLOUDY    49  35  58 E8        29.92R
JORDAN           N/A     50  34  54 N10       29.89R
SIDNEY         PTCLDY    52  37  56 E14       29.92R
WOLF POINT     CLOUDY    50  38  63 NE8       29.93R
MALTA          CLOUDY    46  37  71 NE10G16   29.92R
PLENTYWOOD       N/A     43  37  81 NE10      29.96R
POPLAR           N/A     48  39  71 E9        29.92S
SCOBEY           N/A     44  31  60 NE2       29.95
$$

MTZ028>42-056>058-280300-
SOUTHCENTRAL AND SOUTHEAST MONTANA

CITY           SKY/WX    TMP DP  RH WIND       PRES   REMARKS
BAKER          CLOUDY    51  31  46 S8        29.90R
BILLINGS       CLOUDY    53  32  44 N9        29.88R
LIVINGSTON     LGT RAIN  41  35  79 N16       29.95R
MILES CITY     CLOUDY    54  36  50 NE3       29.87R
BIG TIMBER     CLOUDY    45  36  70 E6        29.95R
EKALAKA          N/A     51  28  41 SE6       29.89
FORSYTH          N/A     54  39  58 E3        29.87R
HARLOWTON      MOCLDY    47  28  48 N13       29.92R
LAUREL           N/A     52  28  39 NW6       29.89R
$$

REGIONAL REPORTS...DAKOTAS

CITY           SKY/WX    TMP DP  RH WIND       PRES   REMARKS
WILLISTON      CLOUDY    50  35  56 N6        29.97R
MINOT          CLOUDY    36  34  92 N5        30.01R FOG
DICKINSON      CLOUDY    45  27  49 NE9       29.90R
BEACH            N/A    N/A N/A N/A MISG        N/A
TIOGA          CLOUDY    34  34 100 E13G20    30.00R FOG     WCI  25
WATFORD CITY   MOCLDY    43  39  87 NE13      29.94R
BISMARCK       PTCLDY    51  34  52 NE8       29.96R
GRAND FORKS    CLOUDY    39  38  96 N8        30.05R FOG
FARGO          CLEAR     42  40  92 N10       30.01R
BUFFALO SD       N/A     50  34  54 SE14      29.85R
RAPID CITY     MOCLDY    50  35  56 NE10      29.88R
$$

REGIONAL REPORTS...WYOMING/IDAHO/WASHINGTON

CITY           SKY/WX    TMP DP  RH WIND       PRES   REMARKS
GILLETTE         N/A     51  34  52 MISG      29.87R
SHERIDAN       CLOUDY    52  34  50 W8        29.88R
BUFFALO WY     CLOUDY    47  35  63 W16       29.92R
CODY           CLOUDY    46  32  58 N13       29.90R
YELLOWSTONE LA   N/A     29  29 100 W6        29.98R WCI  23
IDAHO FALLS    CLOUDY    41  36  82 N12       29.97R
SALMON         CLOUDY    45  25  45 N13       30.02R
BOISE          MOCLDY    50  29  44 NW14      30.10R
SPOKANE        MOCLDY    45  37  73 CALM      30.09R
$$

REGIONAL REPORTS...ALBERTA

CITY           SKY/WX    TMP DP  RH WIND       PRES   REMARKS
EDMONTON       MOCLDY    34  30  86 E7        29.91R WCI  28
CALGARY        LGT RAIN  46  27  46 SE7       29.87R
LETHBRIDGE     MOCLDY    48  27  43 W17G23    29.88R
MEDICINE HAT   MOCLDY    52  30  43 SW7       29.87R
WATERTON GATE    N/A     37  30  75 SW9         N/A  WCI  31
CARDSTON         N/A     45  28  53 W12G20      N/A
MILK RIVER       N/A     46  30  53 SW9         N/A
$$

REGIONAL REPORTS...SASKATCHEWAN

CITY           SKY/WX    TMP DP  RH WIND       PRES   REMARKS
SWIFT CURRENT  CLOUDY    41  34  75 SE10      29.94R
REGINA         CLOUDY    37  36  93 E12G17    30.02R WCI  30
SASKATOON      CLOUDY    37  32  81 E13       30.04R WCI  29
CYPRESS HILLS    N/A     41  32  70 S8          N/A
VAL MARIE        N/A     41  34  75 E7          N/A
ASSINIBOIA       N/A     36  32  87 E5          N/A
$$




USA.gov is the U.S. government's official web portal to all federal, state and local government web resources and services.